Other Public Products
Issued by NWS Charleston, SC

Current Version | Previous Version | Graphics & Text | Print | Product List | Glossary On
Versions: 1 2 3 4 5 6 7 8 9 10 11 12 13 14 15 16 17 18 19 20 21 22 23 24 25 26 27 28 29 30 31 32 33 34 35 36 37 38 39 40 41 42 43 44 45 46 47 48 49 50
000 FPUS82 KCHS 251412 OPUCHS TEST...KCHS/KSAV Gateway Observations...TEST National Weather Service Charleston SC 1000 AM EDT TUE JUL 25 2017 NOTE: "fair" indicates few or no clouds below 12,000 feet with no significant weather and/or obstructions to visibility. SCZ050-WAZ558-NCZ071-TXZ119-213-PAZ071-DCZ001-FLZ074-172-MI076- NYZ176-178-MAZ016-IL014-TNZ027-NJZ106-GAZ044-MD014-251500- ...Gateway Observations for Charleston International... CITY SKY/WX TMP DP RH WIND PRES REMARKS Chas Airport MOSUNNY 83 75 77 CALM 30.06F HX 90 Seattle MOSUNNY 64 52 64 NE5 30.03S Charlotte PTSUNNY 86 72 62 VRB5 30.10S HX 92 Dallas DFW MOSUNNY 82 74 76 S12 30.07R Dallas Love MOSUNNY 82 73 74 S7 30.08R Philladelphia CLOUDY 70 63 78 E3 30.06R Wash National MOSUNNY 76 60 57 NW14 30.07S Baltimore MOSUNNY 75 61 61 NW14G21 30.06R Miami PTSUNNY 88 77 69 S3 30.13R HX 100 Detroit MOSUNNY 70 55 59 VRB6 30.23R Newark CLOUDY 66 61 84 N7 30.06R Laguardia CLOUDY 67 61 81 NE13 30.06R J F K CLOUDY 67 61 81 NE6 30.07R Boston Logan CLOUDY 59 56 89 N10 30.10R Ft. Lauderdale PTSUNNY 88 77 69 SE8 30.13R HX 100 Chicago O`Hare MOSUNNY 72 58 61 S10 30.20R Chicago Midway MOSUNNY 73 57 57 SE12 30.20R Houston Bush PTSUNNY 83 76 79 S5 30.11R HX 91 Houston Hobby CLOUDY 84 76 76 SE3 30.10R HX 93 Nashville MOSUNNY 85 75 72 CALM 30.11S HX 93 Atlanta PTSUNNY 77 72 84 W6 30.12R $$ GAZ044-118-TXZ119-213-NCZ071-DCZ001-MDZ014-506-PAZ021-071-NJZ106- NYZ176-178-MAZ106-OHZ011-021-055-MIZ076-KYZ091-ILZ014-INZ047- MNZ060-ONZ431-251500- ...Gateway Observations for Savannah International... CITY SKY/WX TMP DP RH WIND PRES REMARKS Savannah Arpt CLOUDY 81 73 76 W7 30.09F Atlanta PTSUNNY 77 72 84 W6 30.12R Charlotte PTSUNNY 86 72 62 VRB5 30.10S HX 92 Dallas DFW MOSUNNY 82 74 76 S12 30.07R Houston Bush PTSUNNY 83 76 79 S5 30.11R HX 91 Wash National MOSUNNY 76 60 57 NW14 30.07S Wash Dulles MOSUNNY 73 57 57 NW14 30.09S Baltimore MOSUNNY 75 61 61 NW14G21 30.06R Philadelphia CLOUDY 70 63 78 E3 30.06R Newark CLOUDY 66 61 84 N7 30.06R Laguardia CLOUDY 67 61 81 NE13 30.06R J F K CLOUDY 67 61 81 NE6 30.07R Boston CLOUDY 59 56 89 N10 30.10R Pittsburg CLOUDY 65 58 78 NW6 30.19R Akron CLOUDY 68 56 65 N8 30.20R Cleveland CLOUDY 69 58 67 N12 30.22R Cincinnati MOSUNNY 70 59 68 E9 30.19F Columbus PTSUNNY 67 58 72 E7 30.21S Detroit MOSUNNY 70 55 59 VRB6 30.23R Chicago O`Hare MOSUNNY 72 58 61 S10 30.20R Minneapolis CLOUDY 69 62 78 S20 30.00F Indianapolis MOSUNNY 71 57 61 SE10 30.20R Toronto Canada PTSUNNY 64 52 63 N9 30.18S $$

USA.gov is the U.S. government's official web portal to all federal, state and local government web resources and services.